Regional Weather Roundup
Issued by NWS

Home | Current Version | Previous Version | Graphics & Text | Print | Product List | Glossary On
Versions: 1 2 3 4 5 6 7 8 9 10 11 12 13 14 15 16 17 18 19 20 21 22 23 24 25 26 27 28 29 30 31 32 33 34 35 36 37 38 39 40 41 42 43 44 45 46 47 48 49 50
251
ASUS44 KLIX 231005
RWRLA
LOUISIANA WEATHER ROUNDUP
NATIONAL WEATHER SERVICE NEW ORLEANS LA
500 AM CDT TUE SEP 23 2014

NOTE: "FAIR" INDICATES FEW OR NO CLOUDS BELOW 12,000 FEET WITH NO
      SIGNIFICANT WEATHER AND/OR OBSTRUCTIONS TO VISIBILITY.
      SKY/WX - SKY CONDITION AND SIGNIFICANT WEATHER.
      TMP - AIR TEMPERATURE.    DP   - DEWPOINT TEMPERATURE.
      RH  - RELATIVE HUMIDITY.  PRES - PRESSURE.
      HX  - HEAT INDEX.         WCI  - WIND CHILL INDEX.

*  THESE STATIONS ARE NOT NWS OR FAA STATIONS AND ARE NOT UNDER
   NWS QUALITY CONTROL.

LAZ040-048-061>063-065-066-069-231100-
SOUTHEAST LOUISIANA

CITY           SKY/WX    TMP DP  RH WIND       PRES   REMARKS
N.O. AUDUBON     N/A     70  56  61 MISG        N/A
N.O. INTL ARPT CLEAR     72  56  57 NE14      30.05S
N.O. LAKEFRONT CLEAR     72  57  59 NE22      30.06R
N.O. DOWNTOWN* FAIR      70  54  56 NE8       30.06R
SLIDELL        CLEAR     60  54  80 N5        30.07R
BATON ROUGE    CLEAR     61  54  77 NE8       30.08S
BOOTHVILLE     CLEAR     79  62  56 NE13G20   30.01S
BELLE CHASSE   CLEAR     68  56  65 NE10      30.04S
BOGALUSA*      FAIR      57  53  85 N6        30.10R
GALLIANO*      NOT AVBL
NEW ROADS*     FAIR      62  53  73 NE7       30.09R
GONZALES*      FAIR      62  58  89 NE3       30.06S
HAMMOND*       CLEAR     61  52  72 N5        30.10R
HOUMA*         CLEAR     66  47  49 NE6       30.04R
PORT FOURCHON* SUNNY     77  64  65 NE15G23   30.04S

$$

LAZ041-044-053-054-231100-
SOUTHWEST LOUISIANA

CITY           SKY/WX    TMP DP  RH WIND       PRES   REMARKS
LAKE CHARLES   CLEAR     64  56  75 NE12      30.07S
LAFAYETTE      CLEAR     60  57  89 NE6       30.07S
PATTERSON      CLEAR     64  57  77 NE7       30.07S
SALT POINT       N/A     68  61  78 VRB3      30.03S
NEW IBERIA     CLEAR     65  57  75 NE13      30.07S
CHENAULT AIRPK NOT AVBL

$$

LAZ027-028-231100-
CENTRAL LOUISIANA

CITY           SKY/WX    TMP DP  RH WIND       PRES   REMARKS
FORT POLK      NOT AVBL
ALEXANDRIA INT CLEAR     60  54  80 NE5       30.10S
ALEXANDRIA     CLEAR     58  54  86 CALM      30.12S

$$

LAZ001-002-231100-
NORTHWEST LOUISIANA

CITY           SKY/WX    TMP DP  RH WIND       PRES   REMARKS
SHREVEPORT     CLEAR     61  52  72 E7        30.15S
BARKSDALE AFB  CLEAR     57  51  80 N1        30.17R
DTN SHREVEPORT CLEAR     58  53  84 CALM      30.16S

$$

LAZ014-016-231100-
NORTHEAST LOUISIANA

CITY           SKY/WX    TMP DP  RH WIND       PRES   REMARKS
MONROE         CLEAR     57  52  83 NE5       30.15S
TALLULAH       CLEAR     58  54  86 NE7       30.14S

$$




USA.gov is the U.S. government's official web portal to all federal, state and local government web resources and services.